NSK2812 EIDW-EGGD

Flight info

Callsign NSK2812
Flight time 1h 16m
Altitude 27000
Route PESIT2J PESIT DCT BAKUR/N0400F230 N24 ADHAV P70 AGCAT Q63 BAJJA BAJJA1B
Aircraft A320/M-SDE3FGHIRWY/LB1

Departure

Time 2026-05-04 13:10
Airport Dublin Airport (EIDW)

Arrival

Time 2026-05-04 14:26
Airport Bristol Airport (EGGD)
Time Latitude Longitude Altitude Speed Heading
2026-05-04 12:38 53.42304 -6.24347 225 ft 0 kts 324°
2026-05-04 12:57 53.42300 -6.24343 226 ft 4 kts 324°
2026-05-04 12:57 53.42285 -6.24325 226 ft 4 kts 324°
2026-05-04 12:57 53.42264 -6.24298 228 ft 4 kts 319°
2026-05-04 12:58 53.42251 -6.24277 226 ft 2 kts 291°
2026-05-04 12:58 53.42249 -6.24259 227 ft 2 kts 229°
2026-05-04 12:58 53.42256 -6.24245 226 ft 2 kts 224°
2026-05-04 12:58 53.42261 -6.24237 227 ft 0 kts 221°
2026-05-04 13:02 53.42249 -6.24255 227 ft 4 kts 221°
2026-05-04 13:02 53.42224 -6.24292 225 ft 8 kts 225°
2026-05-04 13:03 53.42204 -6.24410 225 ft 12 kts 271°
2026-05-04 13:03 53.42212 -6.24566 225 ft 15 kts 275°
2026-05-04 13:03 53.42202 -6.24743 225 ft 17 kts 245°
2026-05-04 13:03 53.42194 -6.24950 226 ft 19 kts 275°
2026-05-04 13:04 53.42207 -6.25180 228 ft 22 kts 276°
2026-05-04 13:04 53.42221 -6.25453 225 ft 23 kts 275°
2026-05-04 13:04 53.42234 -6.25693 225 ft 20 kts 276°
2026-05-04 13:04 53.42250 -6.25933 225 ft 21 kts 275°
2026-05-04 13:05 53.42265 -6.26191 225 ft 23 kts 275°
2026-05-04 13:05 53.42278 -6.26440 225 ft 22 kts 276°
2026-05-04 13:05 53.42290 -6.26703 225 ft 23 kts 274°
2026-05-04 13:05 53.42304 -6.26962 225 ft 23 kts 275°
2026-05-04 13:06 53.42317 -6.27193 225 ft 19 kts 275°
2026-05-04 13:06 53.42328 -6.27402 225 ft 17 kts 275°
2026-05-04 13:06 53.42339 -6.27588 225 ft 15 kts 275°
2026-05-04 13:06 53.42348 -6.27755 225 ft 14 kts 275°
2026-05-04 13:07 53.42358 -6.27924 225 ft 19 kts 276°
2026-05-04 13:07 53.42373 -6.28180 225 ft 21 kts 275°
2026-05-04 13:07 53.42387 -6.28432 225 ft 22 kts 275°
2026-05-04 13:07 53.42399 -6.28655 225 ft 17 kts 275°
2026-05-04 13:08 53.42408 -6.28838 225 ft 15 kts 275°
2026-05-04 13:08 53.42402 -6.29000 225 ft 13 kts 248°
2026-05-04 13:08 53.42334 -6.29070 227 ft 11 kts 186°
2026-05-04 13:08 53.42276 -6.29059 230 ft 7 kts 163°
2026-05-04 13:09 53.42253 -6.29030 234 ft 6 kts 128°
2026-05-04 13:09 53.42242 -6.28965 235 ft 0 kts 95°
2026-05-04 13:09 53.42242 -6.28964 235 ft 2 kts 95°
2026-05-04 13:09 53.42218 -6.28500 237 ft 77 kts 95°
2026-05-04 13:10 53.42147 -6.27246 231 ft 136 kts 95°
2026-05-04 13:10 53.42051 -6.25484 592 ft 153 kts 93°
2026-05-04 13:10 53.41936 -6.23707 1366 ft 153 kts 93°
2026-05-04 13:10 53.41828 -6.21916 2044 ft 156 kts 92°
2026-05-04 13:11 53.41734 -6.19989 2395 ft 177 kts 92°
2026-05-04 13:11 53.41634 -6.17837 2854 ft 192 kts 91°
2026-05-04 13:11 53.41529 -6.15504 3201 ft 214 kts 91°
2026-05-04 13:11 53.41415 -6.12856 3550 ft 240 kts 91°
2026-05-04 13:12 53.41277 -6.09941 4104 ft 259 kts 92°
2026-05-04 13:12 53.41120 -6.06895 4995 ft 263 kts 94°
2026-05-04 13:12 53.40889 -6.03829 5874 ft 268 kts 104°
2026-05-04 13:12 53.39986 -6.01107 6635 ft 275 kts 137°
2026-05-04 13:13 53.38328 -5.99643 7431 ft 278 kts 170°
2026-05-04 13:13 53.36384 -5.99586 8236 ft 282 kts 187°
2026-05-04 13:13 53.34433 -6.00102 8890 ft 288 kts 191°
2026-05-04 13:13 53.32457 -6.00710 9060 ft 288 kts 190°
2026-05-04 13:14 53.30476 -6.01211 9104 ft 288 kts 187°
2026-05-04 13:14 53.28500 -6.01757 9102 ft 288 kts 195°
2026-05-04 13:14 53.26603 -6.02822 9105 ft 288 kts 199°
2026-05-04 13:14 53.24705 -6.03863 9107 ft 287 kts 198°
2026-05-04 13:15 53.22794 -6.04843 9102 ft 287 kts 197°
2026-05-04 13:15 53.20874 -6.05803 9170 ft 290 kts 197°
2026-05-04 13:15 53.18884 -6.06464 9957 ft 294 kts 182°
2026-05-04 13:15 53.16842 -6.06078 10629 ft 303 kts 168°
2026-05-04 13:16 53.14704 -6.05292 10883 ft 326 kts 167°
2026-05-04 13:16 53.12436 -6.04398 11173 ft 345 kts 166°
2026-05-04 13:16 53.10076 -6.03438 11816 ft 352 kts 166°
2026-05-04 13:16 53.07684 -6.02459 12525 ft 356 kts 166°
2026-05-04 13:17 53.05261 -6.01474 13214 ft 361 kts 166°
2026-05-04 13:17 53.02806 -6.00479 13924 ft 365 kts 165°
2026-05-04 13:17 53.00326 -5.99478 14527 ft 369 kts 165°
2026-05-04 13:17 52.97818 -5.98472 15156 ft 372 kts 166°
2026-05-04 13:18 52.95293 -5.97465 15824 ft 375 kts 165°
2026-05-04 13:18 52.92748 -5.96452 16450 ft 378 kts 166°
2026-05-04 13:18 52.90180 -5.95433 17086 ft 381 kts 166°
2026-05-04 13:18 52.87591 -5.94411 17689 ft 384 kts 164°
2026-05-04 13:19 52.84985 -5.93382 18305 ft 387 kts 164°
2026-05-04 13:19 52.82356 -5.92340 18851 ft 389 kts 164°
2026-05-04 13:19 52.79717 -5.91294 19358 ft 392 kts 164°
2026-05-04 13:19 52.77048 -5.90237 19856 ft 395 kts 164°
2026-05-04 13:20 52.74363 -5.89172 20345 ft 399 kts 164°
2026-05-04 13:20 52.71658 -5.88099 20838 ft 402 kts 164°
2026-05-04 13:20 52.68930 -5.87020 21320 ft 405 kts 163°
2026-05-04 13:20 52.66183 -5.85938 21782 ft 408 kts 163°
2026-05-04 13:21 52.63448 -5.84863 22239 ft 411 kts 163°
2026-05-04 13:21 52.60651 -5.83769 22712 ft 414 kts 163°
2026-05-04 13:21 52.57836 -5.82668 23025 ft 417 kts 162°
2026-05-04 13:21 52.55013 -5.81563 23080 ft 417 kts 162°
2026-05-04 13:22 52.52189 -5.80459 23076 ft 417 kts 162°
2026-05-04 13:22 52.49367 -5.79359 23076 ft 417 kts 162°
2026-05-04 13:22 52.46540 -5.78259 23076 ft 417 kts 162°
2026-05-04 13:22 52.43729 -5.77164 23076 ft 417 kts 162°
2026-05-04 13:23 52.40903 -5.76064 23075 ft 417 kts 162°
2026-05-04 13:23 52.38091 -5.74918 23087 ft 416 kts 161°
2026-05-04 13:23 52.35314 -5.73643 23073 ft 413 kts 160°
2026-05-04 13:23 52.32568 -5.72285 23069 ft 412 kts 159°
2026-05-04 13:24 52.29828 -5.70890 23065 ft 412 kts 159°
2026-05-04 13:24 52.27095 -5.69499 23067 ft 412 kts 159°
2026-05-04 13:24 52.24365 -5.68106 23067 ft 410 kts 157°
2026-05-04 13:25 52.19101 -5.64583 23066 ft 409 kts 154°
2026-05-04 13:25 52.16473 -5.62816 23067 ft 409 kts 154°
2026-05-04 13:25 52.13842 -5.61063 23082 ft 408 kts 155°
2026-05-04 13:25 52.11218 -5.59316 23065 ft 407 kts 155°
2026-05-04 13:26 52.08630 -5.57582 23063 ft 408 kts 154°
2026-05-04 13:26 52.06128 -5.55446 23065 ft 405 kts 144°
2026-05-04 13:26 52.03917 -5.52643 23063 ft 402 kts 134°
2026-05-04 13:26 52.02054 -5.49288 23057 ft 399 kts 124°
2026-05-04 13:27 52.00521 -5.45551 23049 ft 398 kts 121°
2026-05-04 13:27 51.99019 -5.41768 23055 ft 398 kts 121°
2026-05-04 13:27 51.97511 -5.38004 23053 ft 399 kts 121°
2026-05-04 13:27 51.95995 -5.34237 23059 ft 399 kts 121°
2026-05-04 13:28 51.94479 -5.30477 23050 ft 398 kts 121°
2026-05-04 13:28 51.92970 -5.26723 23040 ft 397 kts 119°
2026-05-04 13:28 51.91733 -5.22733 23049 ft 396 kts 110°
2026-05-04 13:28 51.90945 -5.18467 23045 ft 395 kts 101°
2026-05-04 13:29 51.90448 -5.14091 23046 ft 395 kts 100°
2026-05-04 13:29 51.89946 -5.09720 23042 ft 395 kts 100°
2026-05-04 13:29 51.89433 -5.05348 23035 ft 395 kts 100°
2026-05-04 13:29 51.88914 -5.00976 23029 ft 395 kts 100°
2026-05-04 13:30 51.88394 -4.96609 23028 ft 395 kts 100°
2026-05-04 13:30 51.87874 -4.92240 23031 ft 396 kts 100°
2026-05-04 13:30 51.87352 -4.87870 23029 ft 396 kts 101°
2026-05-04 13:30 51.86827 -4.83490 23015 ft 396 kts 101°
2026-05-04 13:31 51.86301 -4.79112 23021 ft 397 kts 101°
2026-05-04 13:31 51.85776 -4.74721 23020 ft 398 kts 101°
2026-05-04 13:31 51.85251 -4.70326 23024 ft 398 kts 101°
2026-05-04 13:31 51.84722 -4.65930 23018 ft 398 kts 101°
2026-05-04 13:32 51.84197 -4.61596 23020 ft 398 kts 101°
2026-05-04 13:32 51.83655 -4.57144 23026 ft 398 kts 101°
2026-05-04 13:32 51.83121 -4.52759 23028 ft 398 kts 101°
2026-05-04 13:32 51.82591 -4.48425 22954 ft 395 kts 101°
2026-05-04 13:33 51.82064 -4.44115 22675 ft 388 kts 101°
2026-05-04 13:33 51.81543 -4.39856 22398 ft 385 kts 101°
2026-05-04 13:33 51.81021 -4.35618 22124 ft 384 kts 102°
2026-05-04 13:33 51.80498 -4.31396 21855 ft 383 kts 102°
2026-05-04 13:34 51.79997 -4.27175 21588 ft 382 kts 100°
2026-05-04 13:34 51.79612 -4.22933 21327 ft 381 kts 98°
2026-05-04 13:34 51.79314 -4.18692 21067 ft 380 kts 97°
2026-05-04 13:34 51.79056 -4.14457 20808 ft 378 kts 96°
2026-05-04 13:35 51.78804 -4.10237 20546 ft 375 kts 96°
2026-05-04 13:35 51.78272 -4.01968 19670 ft 367 kts 97°
2026-05-04 13:35 51.77986 -3.97890 19205 ft 364 kts 97°
2026-05-04 13:36 51.77691 -3.93849 18734 ft 361 kts 98°
2026-05-04 13:36 51.77392 -3.89830 18246 ft 360 kts 98°
2026-05-04 13:36 51.77094 -3.85824 17763 ft 360 kts 98°
2026-05-04 13:36 51.76796 -3.81790 17372 ft 363 kts 98°
2026-05-04 13:37 51.76496 -3.77736 16963 ft 362 kts 98°
2026-05-04 13:37 51.76198 -3.73738 16556 ft 360 kts 98°
2026-05-04 13:37 51.75899 -3.69749 16148 ft 358 kts 98°
2026-05-04 13:37 51.75701 -3.67111 15887 ft 357 kts 98°
2026-05-04 13:38 51.75298 -3.61810 15349 ft 355 kts 98°
2026-05-04 13:38 51.74997 -3.57880 14948 ft 352 kts 98°
2026-05-04 13:38 51.74694 -3.53971 14551 ft 350 kts 98°
2026-05-04 13:38 51.74394 -3.50085 14159 ft 348 kts 98°
2026-05-04 13:39 51.74097 -3.46217 13766 ft 347 kts 98°
2026-05-04 13:39 51.73800 -3.42368 13348 ft 345 kts 98°
2026-05-04 13:39 51.73503 -3.38539 12956 ft 343 kts 98°
2026-05-04 13:39 51.73209 -3.34725 12583 ft 342 kts 99°
2026-05-04 13:40 51.72896 -3.30927 12188 ft 341 kts 102°
2026-05-04 13:40 51.72197 -3.27302 11814 ft 337 kts 115°
2026-05-04 13:40 51.71016 -3.24073 11441 ft 333 kts 129°
2026-05-04 13:40 51.69476 -3.21379 11097 ft 329 kts 136°
2026-05-04 13:41 51.67883 -3.18845 10968 ft 316 kts 137°
2026-05-04 13:41 51.66353 -3.16405 10844 ft 304 kts 137°
2026-05-04 13:41 51.64879 -3.14053 10720 ft 293 kts 137°
2026-05-04 13:42 51.62050 -3.09536 10493 ft 286 kts 137°
2026-05-04 13:42 51.60633 -3.07278 10134 ft 285 kts 136°
2026-05-04 13:42 51.59224 -3.05036 9742 ft 284 kts 136°
2026-05-04 13:42 51.57812 -3.02795 9311 ft 284 kts 136°
2026-05-04 13:43 51.56409 -3.00565 8959 ft 284 kts 136°
2026-05-04 13:43 51.55013 -2.98349 8650 ft 280 kts 136°
2026-05-04 13:43 51.53625 -2.96155 8255 ft 278 kts 136°
2026-05-04 13:43 51.52258 -2.93996 7951 ft 274 kts 136°
2026-05-04 13:44 51.50893 -2.91839 7507 ft 275 kts 136°
2026-05-04 13:44 51.49538 -2.89697 7248 ft 271 kts 136°
2026-05-04 13:44 51.48206 -2.87590 7024 ft 266 kts 135°
2026-05-04 13:44 51.46890 -2.85512 7031 ft 264 kts 135°
2026-05-04 13:45 51.45620 -2.83512 7029 ft 247 kts 136°
2026-05-04 13:45 51.44434 -2.81648 7030 ft 234 kts 136°
2026-05-04 13:45 51.43295 -2.79857 7028 ft 231 kts 136°
2026-05-04 13:45 51.42152 -2.78063 7030 ft 230 kts 136°
2026-05-04 13:46 51.41008 -2.76267 7029 ft 231 kts 135°
2026-05-04 13:46 51.39856 -2.74457 7029 ft 232 kts 135°
2026-05-04 13:46 51.38699 -2.72640 7030 ft 232 kts 135°
2026-05-04 13:46 51.37652 -2.70702 7031 ft 231 kts 118°
2026-05-04 13:47 51.37304 -2.68225 7030 ft 233 kts 88°
2026-05-04 13:47 51.37755 -2.65748 7028 ft 236 kts 59°
2026-05-04 13:47 51.38881 -2.63853 7029 ft 239 kts 33°
2026-05-04 13:47 51.40446 -2.62979 7028 ft 242 kts
2026-05-04 13:48 51.42111 -2.63364 7028 ft 245 kts 336°
2026-05-04 13:48 51.43475 -2.64960 7030 ft 245 kts 307°
2026-05-04 13:48 51.44208 -2.67376 7029 ft 242 kts 279°
2026-05-04 13:48 51.44322 -2.70062 7030 ft 242 kts 269°
2026-05-04 13:49 51.44336 -2.72770 7029 ft 244 kts 268°
2026-05-04 13:49 51.44334 -2.75487 7030 ft 244 kts 268°
2026-05-04 13:49 51.44332 -2.78193 7029 ft 242 kts 268°
2026-05-04 13:49 51.44335 -2.80889 7027 ft 241 kts 268°
2026-05-04 13:50 51.44188 -2.83543 7031 ft 239 kts 248°
2026-05-04 13:50 51.43311 -2.85791 6635 ft 244 kts 218°
2026-05-04 13:50 51.41796 -2.86913 6106 ft 240 kts 184°
2026-05-04 13:50 51.40233 -2.86652 6000 ft 224 kts 156°
2026-05-04 13:51 51.38959 -2.85278 6001 ft 222 kts 130°
2026-05-04 13:51 51.38255 -2.83086 6002 ft 225 kts 101°
2026-05-04 13:51 51.38159 -2.80572 6007 ft 227 kts 92°
2026-05-04 13:51 51.38146 -2.78048 6006 ft 227 kts 91°
2026-05-04 13:52 51.38136 -2.73005 6005 ft 227 kts 91°
2026-05-04 13:52 51.38244 -2.70482 6011 ft 229 kts 76°
2026-05-04 13:52 51.39042 -2.68298 6009 ft 231 kts 45°
2026-05-04 13:53 51.39928 -2.67343 6005 ft 234 kts 23°
2026-05-04 13:53 51.41530 -2.66994 6005 ft 237 kts 350°
2026-05-04 13:53 51.43020 -2.68065 6009 ft 239 kts 317°
2026-05-04 13:54 51.44080 -2.72881 5673 ft 235 kts 267°
2026-05-04 13:54 51.44072 -2.75521 5677 ft 237 kts 269°
2026-05-04 13:54 51.44092 -2.80792 5678 ft 237 kts 269°
2026-05-04 13:55 51.43936 -2.83403 5683 ft 235 kts 247°
2026-05-04 13:55 51.41609 -2.86560 5679 ft 225 kts 185°
2026-05-04 13:55 51.40079 -2.86294 5676 ft 224 kts 155°
2026-05-04 13:56 51.38837 -2.84837 5677 ft 223 kts 127°
2026-05-04 13:56 51.38216 -2.82601 5674 ft 222 kts 98°
2026-05-04 13:56 51.38135 -2.77574 5209 ft 225 kts 91°
2026-05-04 13:57 51.38134 -2.75073 4882 ft 224 kts 91°
2026-05-04 13:57 51.38135 -2.72592 4572 ft 222 kts 91°
2026-05-04 13:58 51.40586 -2.67657 3618 ft 225 kts 350°
2026-05-04 13:58 51.42393 -2.71176 3037 ft 222 kts 264°
2026-05-04 13:58 51.42113 -2.73638 3013 ft 228 kts 257°
2026-05-04 13:59 51.41781 -2.76135 3013 ft 229 kts 257°
2026-05-04 13:59 51.41448 -2.78620 3004 ft 228 kts 257°
2026-05-04 13:59 51.40778 -2.83591 3011 ft 227 kts 257°
2026-05-04 14:00 51.40524 -2.86084 3001 ft 228 kts 271°
2026-05-04 14:00 51.41217 -2.91019 3012 ft 227 kts 285°
2026-05-04 14:00 51.41611 -2.93472 3005 ft 229 kts 284°
2026-05-04 14:01 51.41649 -2.95932 3000 ft 217 kts 250°
2026-05-04 14:01 51.40797 -2.97783 2996 ft 205 kts 211°
2026-05-04 14:01 51.38277 -2.97724 3004 ft 174 kts 142°
2026-05-04 14:02 51.37551 -2.96323 3000 ft 157 kts 112°
2026-05-04 14:02 51.37352 -2.94657 2998 ft 151 kts 86°
2026-05-04 14:02 51.37421 -2.92982 2976 ft 151 kts 86°
2026-05-04 14:02 51.37491 -2.91305 2843 ft 150 kts 86°
2026-05-04 14:03 51.37559 -2.89644 2670 ft 149 kts 85°
2026-05-04 14:03 51.37626 -2.87994 2491 ft 148 kts 85°
2026-05-04 14:03 51.37692 -2.86361 2288 ft 146 kts 85°
2026-05-04 14:03 51.37755 -2.84786 2092 ft 141 kts 85°
2026-05-04 14:04 51.37879 -2.81700 1717 ft 139 kts 84°
2026-05-04 14:04 51.37940 -2.80170 1515 ft 137 kts 83°
2026-05-04 14:04 51.38000 -2.78667 1339 ft 137 kts 82°
2026-05-04 14:05 51.38123 -2.75610 938 ft 138 kts 82°
2026-05-04 14:05 51.38181 -2.74092 755 ft 137 kts 84°
2026-05-04 14:05 51.38260 -2.72537 764 ft 149 kts 80°
2026-05-04 14:06 51.38358 -2.70872 1500 ft 152 kts 82°
2026-05-04 14:06 51.38462 -2.69197 2388 ft 153 kts 83°
2026-05-04 14:06 51.38599 -2.67405 2777 ft 173 kts 82°
2026-05-04 14:06 51.38783 -2.65360 2974 ft 201 kts 82°
2026-05-04 14:07 51.39006 -2.63044 2983 ft 214 kts 82°
2026-05-04 14:07 51.39235 -2.60674 2995 ft 217 kts 81°
2026-05-04 14:07 51.39465 -2.58288 3006 ft 218 kts 81°
2026-05-04 14:07 51.39758 -2.55910 3007 ft 218 kts 68°
2026-05-04 14:08 51.40675 -2.54025 3007 ft 219 kts 34°
2026-05-04 14:08 51.42113 -2.53302 3012 ft 221 kts 359°
2026-05-04 14:08 51.43574 -2.54014 3007 ft 224 kts 324°
2026-05-04 14:08 51.44545 -2.55932 3007 ft 226 kts 290°
2026-05-04 14:09 51.44768 -2.60943 3011 ft 227 kts 268°
2026-05-04 14:09 51.44713 -2.63467 3010 ft 226 kts 268°
2026-05-04 14:10 51.44748 -2.68519 3005 ft 227 kts 271°
2026-05-04 14:10 51.44787 -2.71056 3010 ft 228 kts 271°
2026-05-04 14:10 51.44824 -2.73592 3009 ft 227 kts 271°
2026-05-04 14:10 51.44863 -2.76119 3011 ft 227 kts 271°
2026-05-04 14:11 51.44859 -2.78662 3004 ft 229 kts 261°
2026-05-04 14:11 51.43698 -2.83343 3014 ft 226 kts 262°
2026-05-04 14:11 51.43815 -2.85807 3018 ft 227 kts 281°
2026-05-04 14:12 51.44105 -2.88326 3181 ft 227 kts 280°
2026-05-04 14:12 51.44386 -2.90818 3405 ft 228 kts 280°
2026-05-04 14:12 51.44729 -2.95823 3504 ft 227 kts 274°
2026-05-04 14:13 51.44856 -2.98349 3507 ft 227 kts 274°
2026-05-04 14:13 51.44979 -3.00868 3507 ft 227 kts 274°
2026-05-04 14:13 51.45104 -3.03386 3507 ft 228 kts 274°
2026-05-04 14:13 51.45232 -3.05922 3508 ft 228 kts 274°
2026-05-04 14:14 51.45359 -3.08449 3510 ft 227 kts 274°
2026-05-04 14:14 51.45610 -3.13505 3508 ft 228 kts 274°
2026-05-04 14:14 51.45736 -3.16036 3508 ft 228 kts 274°
2026-05-04 14:15 51.45991 -3.21112 3509 ft 228 kts 274°
2026-05-04 14:15 51.46240 -3.26172 3508 ft 227 kts 274°
2026-05-04 14:16 51.46488 -3.31231 3508 ft 228 kts 274°
2026-05-04 14:16 51.46611 -3.33759 3509 ft 226 kts 274°
2026-05-04 14:17 51.45926 -3.38476 3505 ft 224 kts 223°
2026-05-04 14:17 51.44593 -3.39660 3511 ft 220 kts 189°
2026-05-04 14:17 51.41576 -3.39346 3505 ft 217 kts 158°
2026-05-04 14:18 51.40321 -3.38067 3507 ft 214 kts 131°
2026-05-04 14:18 51.39452 -3.33620 3506 ft 217 kts 94°
2026-05-04 14:19 51.39265 -3.28754 3509 ft 219 kts 94°
2026-05-04 14:19 51.39170 -3.26325 3509 ft 219 kts 94°
2026-05-04 14:19 51.39075 -3.23924 3509 ft 219 kts 94°
2026-05-04 14:19 51.38975 -3.21457 3508 ft 219 kts 94°
2026-05-04 14:20 51.38877 -3.19057 3508 ft 219 kts 94°
2026-05-04 14:20 51.38779 -3.16622 3508 ft 219 kts 94°
2026-05-04 14:20 51.38682 -3.14192 3508 ft 219 kts 94°
2026-05-04 14:21 51.38485 -3.09320 3507 ft 219 kts 94°
2026-05-04 14:21 51.38383 -3.06887 3507 ft 219 kts 94°
2026-05-04 14:21 51.38279 -3.04455 3506 ft 218 kts 94°
2026-05-04 14:21 51.38178 -3.02096 3503 ft 207 kts 94°
2026-05-04 14:22 51.38081 -2.99854 3501 ft 198 kts 94°
2026-05-04 14:22 51.37987 -2.97714 3521 ft 184 kts 94°
2026-05-04 14:22 51.37901 -2.95762 3502 ft 168 kts 94°
2026-05-04 14:22 51.37824 -2.93996 3504 ft 151 kts 94°
2026-05-04 14:23 51.37689 -2.90793 3440 ft 142 kts 93°
2026-05-04 14:23 51.37662 -2.89212 3323 ft 142 kts 90°
2026-05-04 14:23 51.37681 -2.87621 3036 ft 145 kts 86°
2026-05-04 14:24 51.37759 -2.85988 2640 ft 151 kts 86°
2026-05-04 14:24 51.37797 -2.84279 2306 ft 154 kts 86°
2026-05-04 14:24 51.37838 -2.82593 1912 ft 151 kts 85°
2026-05-04 14:24 51.37905 -2.80935 1629 ft 144 kts 83°
2026-05-04 14:25 51.37971 -2.79368 1405 ft 139 kts 83°
2026-05-04 14:25 51.38097 -2.76317 968 ft 137 kts 82°
2026-05-04 14:25 51.38151 -2.74807 821 ft 138 kts 81°
2026-05-04 14:26 51.38214 -2.73291 673 ft 136 kts 82°
2026-05-04 14:26 51.38266 -2.71944 626 ft 88 kts 86°
2026-05-04 14:26 51.38292 -2.71323 621 ft 44 kts 86°
2026-05-04 14:26 51.38310 -2.70887 619 ft 30 kts 86°
2026-05-04 14:27 51.38379 -2.70736 615 ft 16 kts 22°
2026-05-04 14:27 51.38438 -2.70714 612 ft 3 kts 356°
2026-05-04 14:27 51.38467 -2.70761 611 ft 13 kts 291°
2026-05-04 14:27 51.38467 -2.70888 621 ft 7 kts 267°
2026-05-04 14:28 51.38465 -2.70977 614 ft 11 kts 267°
2026-05-04 14:28 51.38457 -2.71151 615 ft 15 kts 265°
2026-05-04 14:28 51.38451 -2.71308 618 ft 13 kts 267°
2026-05-04 14:28 51.38446 -2.71463 612 ft 14 kts 267°
2026-05-04 14:29 51.38475 -2.71661 611 ft 7 kts 343°
2026-05-04 14:29 51.38533 -2.71675 619 ft 0 kts 355°
2026-05-04 14:30 51.38534 -2.71675 619 ft 0 kts 355°